Location: Ch�tillon
(48.8024°N, 2.2935°E)
Time: 18:11:29
(UTC+00:00)

RS-15 - Pass Details

Date: 01 July 2022
Orbit: 1881 x 2163 km, 64.8° (Epoch: 11 August)

Event Time Altitude Azimuth Distance (km) Brightness Sun altitude
Rises 20:52:26 0° 307° (NW) 5,677 12.5 -7.4°
Reaches altitude 10° 20:56:12 10° 313° (NW) 4,685 11.8 -7.8°
Maximum altitude 21:08:03 47° 26° (NNE) 2,681 9.0 -9.1°
Drops below altitude 10° 21:19:41 10° 99° (E) 4,608 9.6 -10.2°
Sets 21:23:19 0° 105° (ESE) 5,579 10.0 -10.6°
